#Datum;Uhrzeit;WR;Pac;DaySum;Status;WR;Pac;DaySum;Status;Pdc1;Udc;Temp;WR;Pac;DaySum;Status;Pdc1;Udc;Temp;WR;Pac;DaySum;Status;Pdc1;Udc;Temp;WR;Pac;DaySum;Status;Pdc1;Pdc2;Udc1;Udc2;Temp;WR;Pac;DaySum;Status;Pdc1;Pdc2;Udc1;Udc2;Temp;WR;Pac;DaySum;Status;Pdc1;Udc;Temp;WR;Pac;DaySum;Status;Pdc1;Udc;Temp;WR;Pac;DaySum;Status;Pdc1;Udc;Temp
09.03.18;23:55:00;1;307;21023;0;2;0;10463;0;0;0;0;3;0;6712;0;0;0;0;4;0;9562;0;0;0;0;5;0;23574;0;0;0;0;0;0;6;0;17569;0;0;0;0;0;0;7;0;13107;0;0;0;0;8;0;13067;0;0;0;0;9;0;7122;0;0;0;0
09.03.18;23:50:00;1;362;20998;0;2;0;10463;0;0;0;0;3;0;6712;0;0;0;0;4;0;9562;0;0;0;0;5;0;23574;0;0;0;0;0;0;6;0;17569;0;0;0;0;0;0;7;0;13107;0;0;0;0;8;0;13067;0;0;0;0;9;0;7122;0;0;0;0
09.03.18;23:45:00;1;309;20971;0;2;0;10463;0;0;0;0;3;0;6712;0;0;0;0;4;0;9562;0;0;0;0;5;0;23574;0;0;0;0;0;0;6;0;17569;0;0;0;0;0;0;7;0;13107;0;0;0;0;8;0;13067;0;0;0;0;9;0;7122;0;0;0;0
09.03.18;23:40:00;1;1984;20945;0;2;0;10463;0;0;0;0;3;0;6712;0;0;0;0;4;0;9562;0;0;0;0;5;0;23574;0;0;0;0;0;0;6;0;17569;0;0;0;0;0;0;7;0;13107;0;0;0;0;8;0;13067;0;0;0;0;9;0;7122;0;0;0;0
09.03.18;23:35:00;1;2380;20784;0;2;0;10463;0;0;0;0;3;0;6712;0;0;0;0;4;0;9562;0;0;0;0;5;0;23574;0;0;0;0;0;0;6;0;17569;0;0;0;0;0;0;7;0;13107;0;0;0;0;8;0;13067;0;0;0;0;9;0;7122;0;0;0;0
09.03.18;23:30:00;1;2461;20583;0;2;0;10463;0;0;0;0;3;0;6712;0;0;0;0;4;0;9562;0;0;0;0;5;0;23574;0;0;0;0;0;0;6;0;17569;0;0;0;0;0;0;7;0;13107;0;0;0;0;8;0;13067;0;0;0;0;9;0;7122;0;0;0;0
09.03.18;23:25:00;1;1128;20377;0;2;0;10463;0;0;0;0;3;0;6712;0;0;0;0;4;0;9562;0;0;0;0;5;0;23574;0;0;0;0;0;0;6;0;17569;0;0;0;0;0;0;7;0;13107;0;0;0;0;8;0;13067;0;0;0;0;9;0;7122;0;0;0;0
09.03.18;23:20:00;1;2019;20279;0;2;0;10463;0;0;0;0;3;0;6712;0;0;0;0;4;0;9562;0;0;0;0;5;0;23574;0;0;0;0;0;0;6;0;17569;0;0;0;0;0;0;7;0;13107;0;0;0;0;8;0;13067;0;0;0;0;9;0;7122;0;0;0;0
09.03.18;23:15:00;1;512;20160;0;2;0;10463;0;0;0;0;3;0;6712;0;0;0;0;4;0;9562;0;0;0;0;5;0;23574;0;0;0;0;0;0;6;0;17569;0;0;0;0;0;0;7;0;13107;0;0;0;0;8;0;13067;0;0;0;0;9;0;7122;0;0;0;0
09.03.18;23:10:00;1;509;20117;0;2;0;10463;0;0;0;0;3;0;6712;0;0;0;0;4;0;9562;0;0;0;0;5;0;23574;0;0;0;0;0;0;6;0;17569;0;0;0;0;0;0;7;0;13107;0;0;0;0;8;0;13067;0;0;0;0;9;0;7122;0;0;0;0
09.03.18;23:05:00;1;2386;20063;0;2;0;10463;0;0;0;0;3;0;6712;0;0;0;0;4;0;9562;0;0;0;0;5;0;23574;0;0;0;0;0;0;6;0;17569;0;0;0;0;0;0;7;0;13107;0;0;0;0;8;0;13067;0;0;0;0;9;0;7122;0;0;0;0
09.03.18;23:00:00;1;448;19866;0;2;0;10463;0;0;0;0;3;0;6712;0;0;0;0;4;0;9562;0;0;0;0;5;0;23574;0;0;0;0;0;0;6;0;17569;0;0;0;0;0;0;7;0;13107;0;0;0;0;8;0;13067;0;0;0;0;9;0;7122;0;0;0;0
09.03.18;22:55:00;1;1640;19829;0;2;0;10463;0;0;0;0;3;0;6712;0;0;0;0;4;0;9562;0;0;0;0;5;0;23574;2;0;0;0;0;0;6;0;17569;2;0;0;0;0;0;7;0;13107;0;0;0;0;8;0;13067;0;0;0;0;9;0;7122;0;0;0;0
09.03.18;22:50:00;1;1263;19671;0;2;0;10463;0;0;0;0;3;0;6712;0;0;0;0;4;0;9562;0;0;0;0;5;0;23574;2;0;0;0;0;0;6;0;17569;2;0;0;0;0;0;7;0;13107;0;0;0;0;8;0;13067;0;0;0;0;9;0;7122;0;0;0;0
09.03.18;22:45:00;1;1869;19554;0;2;0;10463;0;0;0;0;3;0;6712;0;0;0;0;4;0;9562;0;0;0;0;5;0;23574;2;0;0;0;0;0;6;0;17569;2;0;0;0;0;0;7;0;13107;0;0;0;0;8;0;13067;0;0;0;0;9;0;7122;0;0;0;0
09.03.18;22:40:00;1;1856;19376;0;2;0;10463;0;0;0;0;3;0;6712;0;0;0;0;4;0;9562;0;0;0;0;5;0;23574;2;0;0;0;0;0;6;0;17569;2;0;0;0;0;0;7;0;13107;0;0;0;0;8;0;13067;0;0;0;0;9;0;7122;0;0;0;0
09.03.18;22:35:00;1;443;19241;0;2;0;10463;0;0;0;0;3;0;6712;0;0;0;0;4;0;9562;0;0;0;0;5;0;23574;2;0;0;0;0;0;6;0;17569;2;0;0;0;0;0;7;0;13107;0;0;0;0;8;0;13067;0;0;0;0;9;0;7122;0;0;0;0
09.03.18;22:30:00;1;438;19204;0;2;0;10463;0;0;0;0;3;0;6712;0;0;0;0;4;0;9562;0;0;0;0;5;0;23574;2;0;0;0;0;0;6;0;17569;2;0;0;0;0;0;7;0;13107;0;0;0;0;8;0;13067;0;0;0;0;9;0;7122;0;0;0;0
09.03.18;22:25:00;1;417;19167;0;2;0;10463;0;0;0;0;3;0;6712;0;0;0;0;4;0;9562;0;0;0;0;5;0;23574;2;0;0;0;0;0;6;0;17569;2;0;0;0;0;0;7;0;13107;0;0;0;0;8;0;13067;0;0;0;0;9;0;7122;0;0;0;0
09.03.18;22:20:00;1;400;19127;0;2;0;10463;0;0;0;0;3;0;6712;0;0;0;0;4;0;9562;0;0;0;0;5;0;23574;2;0;0;0;0;0;6;0;17569;2;0;0;0;0;0;7;0;13107;0;0;0;0;8;0;13067;0;0;0;0;9;0;7122;0;0;0;0
09.03.18;22:15:00;1;397;19094;0;2;0;10463;0;0;0;0;3;0;6712;0;0;0;0;4;0;9562;0;0;0;0;5;0;23574;2;0;0;0;0;0;6;0;17569;2;0;0;0;0;0;7;0;13107;0;0;0;0;8;0;13067;0;0;0;0;9;0;7122;0;0;0;0
09.03.18;22:10:00;1;1059;19061;0;2;0;10463;0;0;0;0;3;0;6712;0;0;0;0;4;0;9562;0;0;0;0;5;0;23574;2;0;0;0;0;0;6;0;17569;2;0;0;0;0;0;7;0;13107;0;0;0;0;8;0;13067;0;0;0;0;9;0;7122;0;0;0;0
09.03.18;22:05:00;1;394;18983;0;2;0;10463;0;0;0;0;3;0;6712;0;0;0;0;4;0;9562;0;0;0;0;5;0;23574;2;0;0;0;0;0;6;0;17569;2;0;0;0;0;0;7;0;13107;0;0;0;0;8;0;13067;0;0;0;0;9;0;7122;0;0;0;0
09.03.18;22:00:00;1;396;18950;0;2;0;10463;0;0;0;0;3;0;6712;0;0;0;0;4;0;9562;0;0;0;0;5;0;23574;2;0;0;0;0;0;6;0;17569;2;0;0;0;0;0;7;0;13107;0;0;0;0;8;0;13067;0;0;0;0;9;0;7122;0;0;0;0
09.03.18;21:55:00;1;384;18917;0;2;0;10463;0;0;0;0;3;0;6712;0;0;0;0;4;0;9562;0;0;0;0;5;0;23574;2;0;0;0;0;0;6;0;17569;2;0;0;0;0;0;7;0;13107;0;0;0;0;8;0;13067;0;0;0;0;9;0;7122;0;0;0;0
09.03.18;21:50:00;1;433;18884;0;2;0;10463;0;0;0;0;3;0;6712;0;0;0;0;4;0;9562;0;0;0;0;5;0;23574;2;0;0;0;0;0;6;0;17569;2;0;0;0;0;0;7;0;13107;0;0;0;0;8;0;13067;0;0;0;0;9;0;7122;0;0;0;0
09.03.18;21:45:00;1;487;18847;0;2;0;10463;0;0;0;0;3;0;6712;0;0;0;0;4;0;9562;0;0;0;0;5;0;23574;2;0;0;0;0;0;6;0;17569;2;0;0;0;0;0;7;0;13107;0;0;0;0;8;0;13067;0;0;0;0;9;0;7122;0;0;0;0
09.03.18;21:40:00;1;470;18807;0;2;0;10463;0;0;0;0;3;0;6712;0;0;0;0;4;0;9562;0;0;0;0;5;0;23574;2;0;0;0;0;0;6;0;17569;2;0;0;0;0;0;7;0;13107;0;0;0;0;8;0;13067;0;0;0;0;9;0;7122;0;0;0;0
09.03.18;21:35:00;1;428;18768;0;2;0;10463;0;0;0;0;3;0;6712;0;0;0;0;4;0;9562;0;0;0;0;5;0;23574;2;0;0;0;0;0;6;0;17569;2;0;0;0;0;0;7;0;13107;0;0;0;0;8;0;13067;0;0;0;0;9;0;7122;0;0;0;0
09.03.18;21:30:00;1;426;18732;0;2;0;10463;0;0;0;0;3;0;6712;0;0;0;0;4;0;9562;0;0;0;0;5;0;23574;2;0;0;0;0;0;6;0;17569;2;0;0;0;0;0;7;0;13107;0;0;0;0;8;0;13067;0;0;0;0;9;0;7122;0;0;0;0
09.03.18;21:25:00;1;424;18696;0;2;0;10463;0;0;0;0;3;0;6712;0;0;0;0;4;0;9562;0;0;0;0;5;0;23574;2;0;0;0;0;0;6;0;17569;2;0;0;0;0;0;7;0;13107;0;0;0;0;8;0;13067;0;0;0;0;9;0;7122;0;0;0;0
09.03.18;21:20:00;1;423;18661;0;2;0;10463;0;0;0;0;3;0;6712;0;0;0;0;4;0;9562;0;0;0;0;5;0;23574;2;0;0;0;0;0;6;0;17569;2;0;0;0;0;0;7;0;13107;0;0;0;0;8;0;13067;0;0;0;0;9;0;7122;0;0;0;0
09.03.18;21:15:00;1;435;18625;0;2;0;10463;0;0;0;0;3;0;6712;0;0;0;0;4;0;9562;0;0;0;0;5;0;23574;2;0;0;0;0;0;6;0;17569;2;0;0;0;0;0;7;0;13107;0;0;0;0;8;0;13067;0;0;0;0;9;0;7122;0;0;0;0
09.03.18;21:10:00;1;376;18589;0;2;0;10463;0;0;0;0;3;0;6712;0;0;0;0;4;0;9562;0;0;0;0;5;0;23574;2;0;0;0;0;0;6;0;17569;2;0;0;0;0;0;7;0;13107;0;0;0;0;8;0;13067;0;0;0;0;9;0;7122;0;0;0;0
09.03.18;21:05:00;1;358;18557;0;2;0;10463;0;0;0;0;3;0;6712;0;0;0;0;4;0;9562;0;0;0;0;5;0;23574;2;0;0;0;0;0;6;0;17569;2;0;0;0;0;0;7;0;13107;0;0;0;0;8;0;13067;0;0;0;0;9;0;7122;0;0;0;0
09.03.18;21:00:00;1;467;18526;0;2;0;10463;0;0;0;0;3;0;6712;0;0;0;0;4;0;9562;0;0;0;0;5;0;23574;2;0;0;0;0;0;6;0;17569;2;0;0;0;0;0;7;0;13107;0;0;0;0;8;0;13067;0;0;0;0;9;0;7122;0;0;0;0
09.03.18;20:55:00;1;435;18489;0;2;0;10463;0;0;0;0;3;0;6712;0;0;0;0;4;0;9562;0;0;0;0;5;0;23574;2;0;0;0;0;0;6;0;17569;2;0;0;0;0;0;7;0;13107;0;0;0;0;8;0;13067;0;0;0;0;9;0;7122;0;0;0;0
09.03.18;20:50:00;1;439;18453;0;2;0;10463;0;0;0;0;3;0;6712;0;0;0;0;4;0;9562;0;0;0;0;5;0;23574;2;0;0;0;0;0;6;0;17569;2;0;0;0;0;0;7;0;13107;0;0;0;0;8;0;13067;0;0;0;0;9;0;7122;0;0;0;0
09.03.18;20:45:00;1;510;18416;0;2;0;10463;0;0;0;0;3;0;6712;0;0;0;0;4;0;9562;0;0;0;0;5;0;23574;2;0;0;0;0;0;6;0;17569;2;0;0;0;0;0;7;0;13107;0;0;0;0;8;0;13067;0;0;0;0;9;0;7122;0;0;0;0
09.03.18;20:40:00;1;505;18374;0;2;0;10463;0;0;0;0;3;0;6712;0;0;0;0;4;0;9562;0;0;0;0;5;0;23574;2;0;0;0;0;0;6;0;17569;2;0;0;0;0;0;7;0;13107;0;0;0;0;8;0;13067;0;0;0;0;9;0;7122;0;0;0;0
09.03.18;20:35:00;1;485;18334;0;2;0;10463;0;0;0;0;3;0;6712;0;0;0;0;4;0;9562;0;0;0;0;5;0;23574;2;0;0;0;0;0;6;0;17569;2;0;0;0;0;0;7;0;13107;0;0;0;0;8;0;13067;0;0;0;0;9;0;7122;0;0;0;0
09.03.18;20:30:00;1;496;18294;0;2;0;10463;0;0;0;0;3;0;6712;0;0;0;0;4;0;9562;0;0;0;0;5;0;23574;2;0;0;0;0;0;6;0;17569;2;0;0;0;0;0;7;0;13107;0;0;0;0;8;0;13067;0;0;0;0;9;0;7122;0;0;0;0
09.03.18;20:25:00;1;494;18253;0;2;0;10463;0;0;0;0;3;0;6712;0;0;0;0;4;0;9562;0;0;0;0;5;0;23574;2;0;0;0;0;0;6;0;17569;2;0;0;0;0;0;7;0;13107;0;0;0;0;8;0;13067;0;0;0;0;9;0;7122;0;0;0;0
09.03.18;20:20:00;1;503;18212;0;2;0;10463;0;0;0;0;3;0;6712;0;0;0;0;4;0;9562;0;0;0;0;5;0;23574;2;0;0;0;0;0;6;0;17569;2;0;0;0;0;0;7;0;13107;0;0;0;0;8;0;13067;0;0;0;0;9;0;7122;0;0;0;0
09.03.18;20:15:00;1;477;18169;0;2;0;10463;0;0;0;0;3;0;6712;0;0;0;0;4;0;9562;0;0;0;0;5;0;23574;2;0;0;0;0;0;6;0;17569;2;0;0;0;0;0;7;0;13107;0;0;0;0;8;0;13067;0;0;0;0;9;0;7122;0;0;0;0
09.03.18;20:10:00;1;399;18131;0;2;0;10463;0;0;0;0;3;0;6712;0;0;0;0;4;0;9562;0;0;0;0;5;0;23574;2;0;0;0;0;0;6;0;17569;2;0;0;0;0;0;7;0;13107;0;0;0;0;8;0;13067;0;0;0;0;9;0;7122;0;0;0;0
09.03.18;20:05:00;1;445;18095;0;2;0;10463;0;0;0;0;3;0;6712;0;0;0;0;4;0;9562;0;0;0;0;5;0;23574;2;0;0;0;0;0;6;0;17569;2;0;0;0;0;0;7;0;13107;0;0;0;0;8;0;13067;0;0;0;0;9;0;7122;0;0;0;0
09.03.18;20:00:00;1;507;18057;0;2;0;10463;0;0;0;0;3;0;6712;0;0;0;0;4;0;9562;0;0;0;0;5;0;23574;2;0;0;0;0;0;6;0;17569;2;0;0;0;0;0;7;0;13107;0;0;0;0;8;0;13067;0;0;0;0;9;0;7122;0;0;0;0
09.03.18;19:55:00;1;550;18015;0;2;0;10463;0;0;0;0;3;0;6712;0;0;0;0;4;0;9562;0;0;0;0;5;0;23574;2;0;0;0;0;0;6;0;17569;2;0;0;0;0;0;7;0;13107;0;0;0;0;8;0;13067;0;0;0;0;9;0;7122;0;0;0;0
09.03.18;19:50:00;1;508;17972;0;2;0;10463;0;0;0;0;3;0;6712;0;0;0;0;4;0;9562;0;0;0;0;5;0;23574;2;0;0;0;0;0;6;0;17569;2;0;0;0;0;0;7;0;13107;0;0;0;0;8;0;13067;0;0;0;0;9;0;7122;0;0;0;0
09.03.18;19:45:00;1;486;17929;0;2;0;10463;0;0;0;0;3;0;6712;0;0;0;0;4;0;9562;0;0;0;0;5;0;23574;2;0;0;0;0;0;6;0;17569;2;0;0;0;0;0;7;0;13107;0;0;0;0;8;0;13067;0;0;0;0;9;0;7122;0;0;0;0
09.03.18;19:40:00;1;553;17886;0;2;0;10463;0;0;0;0;3;0;6712;0;0;0;0;4;0;9562;0;0;0;0;5;0;23574;2;0;0;0;0;0;6;0;17569;2;0;0;0;0;0;7;0;13107;0;0;0;0;8;0;13067;0;0;0;0;9;0;7122;0;0;0;0
09.03.18;19:35:00;1;537;17843;0;2;0;10463;0;0;0;0;3;0;6712;0;0;0;0;4;0;9562;0;0;0;0;5;0;23574;2;0;0;0;0;0;6;0;17569;2;0;0;0;0;0;7;0;13107;0;0;0;0;8;0;13067;0;0;0;0;9;0;7122;0;0;0;0
09.03.18;19:30:00;1;527;17800;0;2;0;10463;0;0;0;0;3;0;6712;0;0;0;0;4;0;9562;0;0;0;0;5;0;23574;2;0;0;0;0;0;6;0;17569;2;0;0;0;0;0;7;0;13107;0;0;0;0;8;0;13067;0;0;0;0;9;0;7122;0;0;0;0
09.03.18;19:25:00;1;1171;17757;0;2;0;10463;0;0;0;0;3;0;6712;0;0;0;0;4;0;9562;0;0;0;0;5;0;23574;2;0;0;0;0;0;6;0;17569;2;0;0;0;0;0;7;0;13107;0;0;0;0;8;0;13067;0;0;0;0;9;0;7122;0;0;0;0
09.03.18;19:20:00;1;2299;17636;0;2;0;10463;0;0;0;0;3;0;6712;0;0;0;0;4;0;9562;0;0;0;0;5;0;23574;2;0;0;0;0;0;6;0;17569;2;0;0;0;0;0;7;0;13107;0;0;0;0;8;0;13067;0;0;0;0;9;0;7122;0;0;0;0
09.03.18;19:15:00;1;2195;17445;0;2;0;10463;0;0;0;0;3;0;6712;0;0;0;0;4;0;9562;0;0;0;0;5;0;23574;2;0;0;0;0;0;6;0;17569;2;0;0;0;0;0;7;0;13107;0;0;0;0;8;0;13067;0;0;0;0;9;0;7122;0;0;0;0
09.03.18;19:10:00;1;2257;17259;0;2;0;10463;0;0;0;0;3;0;6712;0;0;0;0;4;0;9562;0;0;0;0;5;0;23574;2;0;0;0;0;0;6;0;17569;2;0;0;0;0;0;7;0;13107;0;0;0;0;8;0;13067;0;0;0;0;9;0;7122;0;0;0;0
09.03.18;19:05:00;1;2208;17074;0;2;0;10463;0;0;0;0;3;0;6712;0;0;0;0;4;0;9562;0;0;0;0;5;0;23574;2;0;0;0;0;0;6;0;17569;2;0;0;0;0;0;7;0;13107;0;0;0;0;8;0;13067;0;0;0;0;9;0;7122;0;0;0;0
09.03.18;19:00:00;1;1102;16891;0;2;0;10463;0;0;0;0;3;0;6712;0;0;0;0;4;0;9562;0;0;0;0;5;0;23574;2;0;0;0;0;0;6;0;17569;2;0;0;0;0;0;7;0;13107;0;0;0;0;8;0;13067;0;0;0;0;9;0;7122;0;0;0;0
09.03.18;18:55:00;1;282;16813;0;2;0;10463;0;0;0;0;3;0;6712;0;0;0;0;4;0;9562;0;0;0;0;5;0;23574;2;0;0;0;0;0;6;0;17569;2;0;0;0;0;0;7;0;13107;0;0;0;0;8;0;13067;0;0;0;0;9;0;7122;0;0;0;0
09.03.18;18:50:00;1;269;16789;0;2;0;10463;0;0;0;0;3;0;6712;0;0;0;0;4;0;9562;0;0;0;0;5;0;23574;2;0;0;0;0;0;6;0;17569;2;0;0;0;0;0;7;0;13107;0;0;0;0;8;0;13067;0;0;0;0;9;0;7122;0;0;0;0
09.03.18;18:45:00;1;276;16767;0;2;0;10463;0;0;0;0;3;0;6712;0;0;0;0;4;0;9562;0;0;0;0;5;0;23574;2;0;0;0;0;0;6;0;17569;2;0;0;0;0;0;7;0;13107;0;0;0;0;8;0;13067;0;0;0;0;9;0;7122;0;0;0;0
09.03.18;18:40:00;1;277;16744;0;2;0;10463;0;0;0;0;3;0;6712;0;0;0;0;4;0;9562;0;0;0;0;5;0;23574;2;0;0;0;0;0;6;0;17569;2;0;0;0;0;0;7;0;13107;0;0;0;0;8;0;13067;0;0;0;0;9;0;7122;0;0;0;0
09.03.18;18:35:00;1;253;16720;0;2;0;10463;0;0;0;0;3;0;6712;0;0;0;0;4;0;9562;0;0;0;0;5;0;23574;2;0;0;0;0;0;6;0;17569;2;0;0;0;0;0;7;0;13107;0;0;0;0;8;0;13067;0;0;0;0;9;0;7122;0;0;0;0
09.03.18;18:30:00;1;236;16699;0;2;0;10463;0;0;0;0;3;0;6712;0;0;0;0;4;0;9562;0;0;0;0;5;0;23574;2;0;0;0;0;0;6;0;17569;2;0;0;0;0;0;7;0;13107;0;0;0;0;8;0;13067;0;0;0;0;9;0;7122;0;0;0;0
09.03.18;18:25:00;1;331;16678;0;2;0;10463;0;0;0;0;3;0;6712;0;0;0;0;4;0;9562;0;0;0;0;5;0;23574;2;0;0;0;0;0;6;0;17569;2;0;0;0;0;0;7;0;13107;0;0;0;0;8;0;13067;0;0;0;0;9;0;7122;0;0;0;0
09.03.18;18:20:00;1;360;16649;0;2;0;10463;0;0;0;0;3;0;6712;0;0;0;0;4;0;9562;0;0;0;0;5;0;23574;2;0;0;0;0;0;6;0;17569;2;0;0;0;0;0;7;0;13107;0;0;0;0;8;0;13067;0;0;0;0;9;0;7122;0;0;0;0
09.03.18;18:15:00;1;408;16619;0;2;0;10463;0;0;149;7;3;0;6712;0;0;244;13;4;0;9562;0;0;0;0;5;0;23574;2;0;0;0;0;0;6;0;17569;2;0;0;0;0;0;7;0;13107;0;0;0;0;8;0;13067;0;0;0;0;9;0;7122;0;0;0;0
09.03.18;18:10:00;1;478;16585;0;2;0;10463;6;0;298;13;3;0;6712;6;0;340;16;4;0;9562;0;0;64;11;5;0;23574;2;0;0;0;0;0;6;0;17569;2;0;0;0;0;0;7;0;13107;0;0;0;0;8;0;13067;0;0;0;0;9;0;7122;0;0;0;0
09.03.18;18:05:00;1;397;16545;0;2;0;10463;6;0;334;13;3;0;6712;6;0;410;16;4;0;9562;1;0;111;14;5;0;23574;1;0;0;316;314;24;6;0;17569;1;6;1;180;392;23;7;0;13107;0;0;85;5;8;0;13067;0;0;86;5;9;0;7122;0;0;180;7
09.03.18;18:00:00;1;271;16513;0;2;0;10463;6;0;363;14;3;0;6712;6;2;438;17;4;0;9562;1;0;153;14;5;0;23574;23;0;0;398;564;25;6;0;17569;23;10;4;181;523;23;7;0;13107;6;0;308;15;8;0;13067;6;0;313;15;9;0;7122;6;0;331;11
09.03.18;17:55:00;1;251;16491;0;2;0;10463;6;0;388;14;3;2;6712;3;6;452;17;4;0;9562;1;0;200;14;5;6;23574;4;0;0;409;641;25;6;0;17569;23;6;3;306;563;24;7;0;13107;6;0;390;15;8;0;13067;6;0;384;15;9;0;7122;6;0;414;11
09.03.18;17:50:00;1;252;16470;0;2;0;10463;6;0;407;14;3;2;6711;6;12;462;17;4;0;9562;3;0;211;15;5;74;23573;4;7;18;377;598;26;6;0;17569;8;8;3;538;584;24;7;0;13107;6;2;433;15;8;1;13067;6;4;418;15;9;0;7122;6;0;503;11
09.03.18;17:45:00;1;253;16449;0;2;0;10463;6;0;414;14;3;0;6711;6;5;507;17;4;0;9562;3;0;219;15;5;93;23567;4;19;23;377;598;26;6;24;17569;4;17;11;335;342;25;7;2;13107;6;4;454;16;8;2;13067;6;4;456;15;9;4;7122;4;6;473;11
09.03.18;17:40:00;1;269;16427;0;2;3;10463;4;10;404;15;3;0;6711;6;6;481;17;4;0;9562;3;0;224;15;5;99;23559;4;24;22;377;598;26;6;28;17568;1;20;12;515;366;25;7;0;13107;6;0;477;16;8;3;13066;6;5;455;15;9;5;7122;3;7;475;12
09.03.18;17:35:00;1;282;16405;0;2;9;10462;3;20;399;15;3;1;6711;6;6;515;17;4;0;9562;3;0;231;15;5;121;23551;4;37;38;377;598;26;6;58;17565;4;38;18;449;215;26;7;3;13107;3;11;450;16;8;0;13066;6;0;482;16;9;1;7121;6;4;518;12
09.03.18;17:30:00;1;228;16382;0;2;15;10461;6;27;397;15;3;0;6711;6;0;542;17;4;2;9562;3;2;200;16;5;134;23540;4;41;35;377;598;26;6;61;17560;4;45;24;449;215;26;7;4;13107;6;9;471;16;8;6;13066;3;20;445;16;9;1;7121;6;6;518;12
09.03.18;17:25:00;1;215;16363;0;2;45;10460;4;79;358;16;3;7;6711;3;17;502;18;4;7;9562;3;7;199;16;5;155;23529;4;50;48;377;598;26;6;74;17555;4;57;28;449;215;26;7;21;13106;6;31;428;17;8;12;13066;6;22;456;16;9;1;7121;6;6;534;12
09.03.18;17:20:00;1;183;16346;0;2;57;10457;4;93;372;16;3;12;6710;6;25;495;18;4;14;9561;3;15;198;16;5;176;23516;4;67;60;377;598;26;6;84;17549;4;45;22;449;215;26;7;46;13105;4;73;350;17;8;46;13065;4;74;358;16;9;4;7121;6;9;535;12
09.03.18;17:15:00;1;182;16330;0;2;71;10452;4;106;365;16;3;5;6709;6;11;535;18;4;29;9560;3;30;198;16;5;182;23502;4;74;66;377;599;27;6;92;17541;4;69;35;449;215;26;7;41;13101;4;76;377;17;8;42;13061;4;75;378;16;9;2;7120;4;7;520;12
09.03.18;17:10:00;1;182;16315;0;2;98;10446;4;132;365;16;3;32;6709;6;54;499;18;4;54;9558;3;56;198;16;5;226;23486;4;99;91;377;599;27;6;112;17534;4;65;30;449;215;26;7;83;13097;4;106;427;17;8;70;13057;4;109;428;17;9;14;7120;3;24;517;12
09.03.18;17:05:00;1;182;16300;0;2;77;10438;4;111;362;16;3;11;6706;4;25;512;18;4;30;9553;3;31;198;16;5;194;23467;4;79;73;377;598;27;6;98;17524;4;71;37;449;215;26;7;67;13091;4;95;374;17;8;61;13052;4;94;387;17;9;3;7119;6;8;547;13
09.03.18;17:00:00;1;201;16284;0;2;51;10431;4;86;358;16;3;4;6705;6;11;523;19;4;15;9550;3;15;199;17;5;151;23451;4;53;53;377;598;27;6;76;17516;4;51;25;449;215;26;7;6;13085;4;12;474;17;8;8;13046;4;11;476;17;9;2;7118;6;7;524;13
09.03.18;16:55:00;1;243;16267;0;2;89;10427;4;124;363;17;3;27;6705;6;48;521;19;4;46;9549;3;48;198;17;5;224;23439;4;94;88;377;598;27;6;109;17510;4;68;34;449;215;26;7;64;13084;4;97;414;17;8;63;13045;4;98;422;17;9;4;7118;6;8;546;13
09.03.18;16:50:00;1;291;16247;0;2;114;10420;4;152;371;17;3;63;6703;4;101;464;19;4;64;9546;3;67;198;17;5;268;23419;4;117;106;377;598;27;6;131;17501;4;80;41;449;215;26;7;93;13079;4;132;442;17;8;94;13040;4;130;431;17;9;9;7118;6;14;551;13
09.03.18;16:45:00;1;310;16221;0;2;127;10410;4;167;384;17;3;75;6697;4;111;465;19;4;82;9540;3;85;200;17;5;301;23397;4;135;116;377;598;27;6;147;17490;4;99;48;449;215;26;7;108;13071;4;148;434;18;8;109;13032;4;149;428;17;9;0;7117;6;0;583;14
09.03.18;16:40:00;1;335;16195;0;2;155;10399;4;193;371;17;3;89;6691;4;129;480;20;4;112;9533;3;117;216;17;5;353;23372;4;169;147;375;598;27;6;216;17477;4;109;100;449;387;26;7;142;13062;4;182;420;18;8;145;13023;4;182;421;17;9;77;7117;4;107;481;14
09.03.18;16:35:00;1;334;16166;0;2;208;10387;4;251;380;18;3;118;6684;4;160;517;20;4;157;9524;5;164;225;17;5;458;23341;4;214;188;394;611;27;6;335;17458;4;143;157;522;543;26;7;217;13050;4;264;446;18;8;225;13011;4;269;447;17;9;120;7111;4;151;495;14
09.03.18;16:30:00;1;321;16138;0;2;257;10369;4;298;379;18;3;154;6674;4;200;510;20;4;207;9511;5;215;231;17;5;557;23302;4;280;235;398;623;27;6;422;17430;4;211;221;566;554;26;7;297;13032;4;330;483;18;8;303;12993;4;345;464;17;9;159;7101;4;196;511;14
09.03.18;16:25:00;1;324;16111;0;2;230;10348;4;270;382;18;3;137;6661;4;179;509;20;4;177;9494;5;184;226;18;5;494;23257;4;237;208;397;608;27;6;376;17395;4;174;187;582;548;26;7;271;13008;4;312;463;18;8;272;12968;4;310;471;17;9;147;7088;4;180;510;14
09.03.18;16:20:00;1;1077;16084;0;2;250;10329;4;293;380;18;3;151;6650;4;194;506;20;4;200;9479;5;208;228;18;5;534;23215;4;259;227;401;624;27;6;405;17363;4;206;221;568;558;26;7;275;12985;4;319;468;18;8;273;12945;4;321;473;18;9;148;7075;4;183;506;15
09.03.18;16:15:00;1;2529;15959;0;2;368;10308;4;414;396;18;3;225;6637;4;273;506;20;4;307;9463;5;320;233;18;5;762;23169;4;385;319;411;637;27;6;570;17329;4;270;275;579;566;26;7;386;12962;4;425;465;18;8;384;12922;4;425;468;18;9;203;7063;4;240;511;15
09.03.18;16:10:00;1;2523;15749;0;2;353;10278;4;399;393;19;3;219;6619;4;263;501;21;4;290;9437;5;302;233;18;5;739;23105;4;375;309;418;645;27;6;553;17281;4;298;308;572;562;26;7;392;12931;4;436;469;18;8;391;12890;4;439;472;18;9;212;7046;4;248;515;15
09.03.18;16:05:00;1;3314;15537;0;2;383;10248;4;432;400;19;3;238;6600;4;285;503;21;4;324;9413;5;338;235;18;5;808;23043;4;394;336;414;646;27;6;602;17234;4;299;304;580;563;26;7;441;12898;4;490;469;18;8;441;12858;4;489;472;18;9;238;7029;4;279;516;15
09.03.18;16:00:00;1;4075;15261;0;2;387;10216;4;436;398;19;3;239;6580;4;281;489;21;4;324;9386;5;338;233;18;5;821;22977;4;406;350;412;637;27;6;621;17184;4;328;336;579;556;26;7;411;12861;4;459;457;18;8;420;12821;4;461;463;18;9;219;7009;4;259;511;15
09.03.18;15:55:00;1;3319;14889;0;2;441;10185;4;490;393;19;3;273;6561;4;323;509;21;4;374;9360;5;390;235;18;5;936;22908;4;463;388;412;672;27;6;691;17132;4;335;336;583;560;26;7;460;12827;4;504;477;18;8;460;12786;4;509;477;18;9;247;6991;4;290;515;15
09.03.18;15:50:00;1;2533;14627;0;2;410;10148;4;461;395;19;3;257;6538;4;302;489;21;4;351;9328;5;366;231;19;5;872;22830;4;433;366;409;675;27;6;656;17074;4;315;329;579;557;27;7;439;12789;4;488;468;18;8;443;12748;4;492;469;18;9;240;6970;4;280;515;15
09.03.18;15:45:00;1;2578;14416;0;2;395;10113;4;444;392;19;3;247;6516;4;292;501;21;4;336;9299;5;350;233;19;5;845;22758;4;414;359;405;650;28;6;640;17020;4;330;341;574;555;27;7;431;12752;4;470;468;18;8;424;12711;4;471;475;18;9;228;6950;4;268;506;16
09.03.18;15:40:00;1;2620;14202;0;2;424;10080;4;475;397;20;3;263;6496;4;310;497;21;4;360;9271;5;375;233;19;5;916;22687;4;439;377;414;673;28;6;676;16967;4;323;341;573;559;27;7;427;12716;4;474;466;18;8;426;12675;4;472;466;18;9;227;6931;4;268;516;16
09.03.18;15:35:00;1;2461;13994;0;2;575;10045;4;630;399;20;3;361;6474;4;413;506;22;4;497;9241;5;518;235;19;5;1199;22610;4;611;515;414;680;28;6;912;16909;4;459;465;586;564;27;7;590;12680;4;645;472;18;8;602;12640;4;648;481;18;9;321;6912;4;365;522;16
09.03.18;15:30:00;1;2465;13789;0;2;610;9998;4;664;404;20;3;385;6444;4;434;497;22;4;531;9200;5;553;234;19;5;1276;22508;4;644;545;419;658;28;6;960;16833;4;472;466;584;561;27;7;657;12631;4;697;468;18;8;650;12590;4;705;463;18;9;353;6885;4;399;522;16
09.03.18;15:25:00;1;2449;13579;0;2;575;9947;4;631;395;20;3;363;6412;4;414;502;22;4;503;9155;5;524;236;19;5;1219;22403;4;611;519;417;671;28;6;919;16752;4;482;476;584;559;27;7;612;12577;4;667;475;19;8;624;12536;4;676;473;18;9;335;6856;4;378;522;16
09.03.18;15:20:00;1;2480;13374;0;2;551;9899;4;606;396;21;3;345;6382;4;395;494;22;4;481;9113;5;501;235;20;5;1182;22302;4;608;500;414;660;28;6;893;16676;4;454;462;579;560;27;7;597;12525;4;652;478;19;8;602;12484;4;659;477;18;9;319;6828;4;373;517;16
09.03.18;15:15:00;1;2433;13164;0;2;662;9852;4;720;393;21;3;416;6353;4;470;503;22;4;577;9073;5;601;235;20;5;1401;22202;4;714;596;418;675;28;6;1055;16600;4;548;540;580;561;27;7;679;12475;4;728;462;19;8;677;12434;4;738;456;18;9;367;6801;4;414;520;16
09.03.18;15:10:00;1;2622;12961;0;2;833;9798;4;897;401;21;3;527;6318;4;585;510;22;4;719;9025;5;749;231;20;5;1686;22085;4;873;727;417;682;28;6;1278;16512;4;676;663;589;568;27;7;835;12419;4;891;465;19;8;838;12377;4;897;464;18;9;452;6771;4;504;518;17
09.03.18;15:05:00;1;2501;12751;0;2;932;9729;4;998;401;21;3;595;6275;4;655;511;23;4;807;8966;5;840;239;20;5;1790;21943;4;936;781;425;690;28;6;1377;16404;4;697;687;593;575;27;7;966;12350;4;1030;472;19;8;972;12308;4;1031;461;18;9;531;6733;4;584;518;17
09.03.18;15:00:00;1;2494;12542;0;2;895;9651;4;960;403;21;3;571;6225;4;630;516;22;4;763;8898;5;795;236;20;5;1678;21793;4;872;729;420;683;28;6;1283;16289;4;665;653;590;569;27;7;950;12270;4;1009;472;19;8;946;12227;4;1005;461;18;9;517;6689;4;568;517;17
09.03.18;14:55:00;1;2504;12335;0;2;791;9577;4;851;400;21;3;500;6178;4;558;506;22;4;664;8835;5;691;236;20;5;1472;21655;4;754;631;418;682;28;6;1124;16184;4;586;583;591;566;27;7;850;12190;4;912;466;19;8;862;12148;4;915;468;19;9;461;6646;4;514;515;17
09.03.18;14:50:00;1;2473;12126;0;2;707;9510;4;766;398;21;3;447;6136;4;499;495;22;4;603;8779;5;628;233;20;5;1391;21534;4;708;594;413;674;28;6;1055;16091;4;554;551;586;564;27;7;765;12119;4;819;464;19;8;765;12076;4;814;463;19;9;409;6607;4;457;515;17
09.03.18;14:45:00;1;2475;11920;0;2;828;9451;4;891;398;22;3;526;6098;4;583;511;23;4;717;8729;5;746;237;20;5;1671;21417;4;857;723;420;686;28;6;1265;16002;4;656;651;593;567;27;7;938;12055;4;995;468;19;8;937;12012;4;989;467;19;9;498;6573;4;550;518;17
09.03.18;14:40:00;1;2130;11713;0;2;826;9383;4;889;403;22;3;524;6055;4;582;507;23;4;720;8670;5;750;238;20;5;1653;21277;4;859;717;428;681;28;6;1269;15895;4;664;662;595;567;27;7;965;11978;4;1021;468;19;8;964;11935;4;1019;473;19;9;515;6532;4;569;519;17
09.03.18;14:35:00;1;984;11558;0;2;732;9314;4;793;404;22;3;466;6011;4;519;505;23;4;635;8610;5;661;237;20;5;1494;21141;4;768;646;421;678;28;6;1146;15791;4;607;597;589;562;27;7;870;11898;4;925;470;19;8;861;11855;4;924;476;19;9;462;6489;4;514;522;17
09.03.18;14:30:00;1;1250;11470;0;2;778;9253;4;839;404;22;3;495;5972;4;549;507;23;4;672;8557;5;700;237;20;5;1568;21016;4;811;679;419;673;28;6;1195;15696;4;584;580;589;566;27;7;899;11825;4;961;473;20;8;903;11783;4;958;474;19;9;481;6451;4;532;523;17
09.03.18;14:25:00;1;659;11365;0;2;704;9188;4;761;398;22;3;445;5931;4;498;498;23;4;597;8501;5;621;240;20;5;1376;20886;4;706;597;419;683;28;6;1062;15597;4;575;565;588;569;27;7;784;11751;4;835;468;20;8;783;11708;4;837;473;19;9;418;6411;4;470;523;17